Location: Llanfaethlu
(53.3500°N, 4.5333°W)
Time: 01:00:06
(UTC+00:00)

Daily predictions for brighter satellites

Satellite Brightness Start Highest point End
(mag) Time Altitude Azimuth Time Altitude Azimuth Time Altitude Azimuth
Cosmos 2219 Rocket 4.1 03:41:53 24° NE 03:41:53 24° NE 03:44:13 10° NE
Cosmos 2237 Rocket 4.3 03:43:06 20° ESE 03:43:29 20° E 03:47:30 10° NE
Cosmos 2333 Rocket 3.7 04:04:36 32° NE 04:04:36 32° NE 04:07:35 10° NE
Cosmos 2360 Rocket 3.9 04:15:24 25° NNE 04:15:24 25° NNE 04:17:50 10° NNE
SL-16 R/B 4.1 04:18:47 20° N 04:18:47 20° N 04:20:54 10° NNE
Cosmos 2322 Rocket 4.1 04:20:13 21° N 04:20:13 21° N 04:22:20 10° NNE
COSMOS 2428 3.6 04:25:09 45° NE 04:25:09 45° NE 04:29:03 10° NE
Cosmos 1980 Rocket 4.4 04:30:22 15° N 04:30:22 15° N 04:32:25 10° NNE
ATLAS CENTAUR R/B 4.1 04:31:44 13° ESE 04:31:44 13° ESE 04:33:00 10° E
ALOS 3.7 04:35:01 10° NNE 04:37:52 34° NE 04:37:52 34° NE
USA 215 3.1 04:36:29 10° ENE 04:43:03 89° NNW 04:43:15 85° W
GEOS 3 Rocket 4.2 04:41:08 10° ESE 04:46:21 52° NNE 04:46:52 51° NNE
Nadezhda 4 Rocket 4.2 04:40:24 10° N 04:46:31 67° ENE 04:52:36 10° SSE
NOSS 0 Rocket 4.2 04:45:40 57° SSE 04:46:36 65° ESE 04:52:42 10° NE
CZ-2C R/B 3.9 04:42:13 10° NNE 04:44:43 29° N 04:44:43 29° N
Cosmos 1943 Rocket 3.0 04:51:10 34° N 04:53:10 47° NE 04:58:38 10° ESE
SL-4 R/B 4.2 04:55:30 20° SE 04:55:30 20° SE 04:57:45 10° E
Cosmos 2298 Rocket 4.2 05:00:29 64° NNE 05:01:08 71° ENE 05:06:28 10° SSE
Cosmos 540 Rocket 3.6 05:01:40 68° SE 05:01:56 69° ESE 05:07:04 10° NNE
Cosmos 2369 Rocket 3.4 05:00:31 22° N 05:03:27 37° NE 05:08:38 10° ESE
Cosmos 1125 Rocket 4.1 05:01:52 35° N 05:03:51 56° ENE 05:09:04 10° SE
Cosmos 1461 3.7 05:11:23 52° NNE 05:11:23 52° NNE 05:15:11 10° NE
Meteor 2-10 4.3 05:12:09 56° NNW 05:12:09 56° NNW 05:16:30 10° N
Cosmos 2278 Rocket 4.5 05:18:36 10° S 05:18:36 10° S 05:18:39 10° S
COSMO-SKYMED 1 3.2 05:09:20 10° SSE 05:12:33 49° SSE 05:12:33 49° SSE
SL-16 R/B 3.6 05:13:54 10° S 05:19:01 37° ESE 05:24:11 10° NE
Cosmos 2026 Rocket 4.5 05:15:53 10° N 05:22:12 62° ENE 05:28:31 10° SSE
Cosmos 1544 Rocket 4.1 05:23:28 48° N 05:23:28 48° N 05:26:41 10° N
Cosmos 2219 Rocket 2.8 05:23:36 40° NNW 05:23:36 40° NNW 05:28:16 10° NNE
ERS-2 3.1 05:22:42 10° SSE 05:25:10 40° SE 05:25:10 40° SE
CENTAUR R/B 4.2 05:21:19 10° S 05:26:32 31° ESE 05:32:33 10° NE
Cosmos 2237 Rocket 2.1 05:24:59 45° SSW 05:26:50 88° WNW 05:32:35 10° NNE
H-2A R/B 4.5 05:23:31 10° NNE 05:26:54 32° E 05:30:17 10° SSE
Cosmos 2208 Rocket 4.2 05:23:25 20° SSW 05:27:10 72° ESE 05:32:34 10° NNE
Cosmos 1953 3.7 05:32:23 28° N 05:32:23 28° N 05:34:21 10° N
Cosmos 2084 4.5 05:39:11 33° NNW 05:39:11 33° NNW 05:42:52 10° NE
Lacrosse 4 Rocket 1.8 05:40:48 32° SSW 05:42:41 66° ESE 05:47:03 10° NE
Meteor 1-11 4.1 05:37:29 10° NNW 05:43:07 86° ENE 05:48:43 10° SSE
FENGYUN 3A 3.8 05:40:09 10° N 05:45:22 50° WNW 05:46:27 43° WSW
Cosmos 2333 Rocket 3.0 05:46:36 31° NW 05:46:42 31° NW 05:51:46 10° NNE
Cosmos 1763 Rocket 4.1 05:47:17 37° NW 05:47:17 37° NW 05:52:01 10° NNE
Cosmos 1300 4.0 05:43:34 10° SSE 05:47:09 41° E 05:50:46 10° NNE
deb Chang Zheng 4 3.6 05:45:14 10° NNE 05:49:31 76° ESE 05:53:44 10° SSW
Cosmos 2195 Rocket 4.4 05:43:19 10° NNW 05:49:37 81° W 05:55:49 10° S
SAR-Lupe-4 3.4 05:46:20 10° SSE 05:49:56 84° WSW 05:50:19 69° NNW
Cosmos 1315 Rocket 4.2 05:48:01 10° SSE 05:51:40 39° E 05:55:21 10° NNE
Cosmos 2297 3.7 05:50:12 34° NW 05:52:33 58° WSW 05:58:09 10° SSE
Meteor 1-31 Rocket 2.8 05:49:04 10° N 05:52:40 57° NW 05:52:40 57° NW
Cosmos 1346 Rocket 2.6 05:54:23 29° NNW 05:56:19 80° W 06:00:18 10° S
Cosmos 2360 Rocket 3.7 05:57:10 19° NNW 05:57:37 19° NNW 06:01:36 10° NNE
Cosmos 841 Rocket 3.6 05:57:01 37° WSW 05:58:39 52° WNW 06:03:43 10° NNE
Cosmos 1428 Rocket 4.4 05:52:36 10° NNW 05:58:55 82° W 06:05:09 10° S
MOS 1 Rocket 3.2 05:54:39 10° S 05:59:21 57° W 06:02:32 19° NNW
USA 238 DEB 4.2 05:54:24 10° SSW 06:00:51 59° SE 06:07:39 10° NE
USA 238 4.2 05:54:31 10° SSW 06:00:58 59° SE 06:07:45 10° NE
Cosmos 1758 Rocket 3.5 05:56:43 10° NNW 06:01:13 74° W 06:05:39 10° S
Cosmos 1980 3.8 05:58:59 32° WSW 06:01:24 54° NW 06:06:59 10° NNE
FALCON 9 DEB 3.0 06:01:26 66° SW 06:01:49 78° S 06:05:14 10° E
SL-16 R/B 4.1 06:00:39 14° NNW 06:01:52 15° NNW 06:05:00 10° NNE
SKYMED 2 4.2 05:57:48 10° SSW 06:01:10 36° WSW 06:01:10 36° WSW
Cosmos 1464 Rocket 4.2 05:58:36 20° SW 06:02:25 43° WNW 06:08:19 10° N
Cosmos 2322 Rocket 4.0 06:02:01 15° NNW 06:03:01 15° NNW 06:06:14 10° NNE
SAR-Lupe-1 4.0 06:02:48 10° S 06:06:20 57° WSW 06:07:00 47° WNW
COSMOS 2428 3.6 06:07:11 28° WNW 06:08:13 30° NW 06:13:12 10° NNE
Cosmos 1689 Rocket 3.3 06:05:45 10° S 06:07:23 29° SSW 06:07:23 29° SSW
ATLAS CENTAUR R/B 0.9 06:07:56 34° SW 06:09:26 89° NW 06:13:09 10° NE
Cosmos 1627 Rocket 4.5 06:05:08 10° NNW 06:11:28 65° W 06:17:47 10° S
BREEZE M DEB (TANK) 4.3 06:12:27 10° S 06:14:14 17° SE 06:17:04 10° E
Cosmos 1980 Rocket 4.4 06:12:36 10° NNW 06:15:21 13° N 06:18:07 10° NE
ALOS 3.3 06:12:53 10° N 06:16:24 26° NW 06:16:24 26° NW
Cosmos 1892 3.5 06:12:58 10° N 06:16:46 54° ENE 06:20:33 10° SSE
YAOGAN 6 2.8 06:13:35 10° NNE 06:17:19 75° ESE 06:21:00 10° S
Cosmos 1602 Rocket 4.3 06:17:38 31° WNW 06:18:08 32° W 06:22:05 10° SSW
Cosmos 1726 Rocket 4.2 06:15:15 10° S 06:19:29 57° E 06:23:45 10° NNE
Cosmos 1908 3.8 06:20:42 33° WNW 06:20:42 33° WNW 06:24:08 10° N
Cosmos 1092 Rocket 4.2 06:15:25 10° NNW 06:21:16 47° W 06:27:07 10° SSW
ADEOS 4.0 06:17:13 10° N 06:22:05 40° WNW 06:26:56 10° SW
USA 307 3.3 06:20:53 18° SW 06:23:51 58° SSE 06:28:02 10° ENE
GEOS 3 Rocket 3.9 06:19:11 10° SSE 06:24:25 52° SW 06:27:59 20° WNW
CZ-2C R/B 4.1 06:21:35 10° NNW 06:24:06 17° NW 06:24:06 17° NW
USA 215 3.4 06:19:30 10° ENE 06:25:57 66° N 06:30:37 20° W
In-Cosmos 22 Rocket 4.1 06:21:33 10° NNW 06:27:05 86° ENE 06:32:27 10° SSE
PSLV R/B 4.0 06:24:09 10° NNE 06:28:10 78° ESE 06:32:14 10° S
Meteor 2-19 Rocket 4.4 06:22:52 10° NNW 06:28:54 61° W 06:34:53 10° S
Cosmos 2292 Rocket 2.7 06:26:04 10° N 06:29:03 84° E 06:32:23 10° S
USA 305 3.2 06:26:57 17° SW 06:30:06 63° SSE 06:34:19 10° ENE
Cosmos 1408 3.3 06:26:59 10° N 06:30:31 53° ENE 06:34:03 10° SSE
Cosmos 2279 Rocket 4.1 06:25:24 10° S 06:31:39 82° E 06:37:58 10° NNE
Cosmos 1400 Rocket 3.5 06:29:05 14° SW 06:32:08 33° WNW 06:35:56 10° N
USA 308 3.2 06:29:28 16° SW 06:32:50 64° SSE 06:37:05 10° ENE
Cosmos 2098 Rocket 3.6 06:27:12 10° NNW 06:32:57 52° W 06:37:32 10° SSW
Okean O Rocket 3.2 06:29:12 10° NNE 06:33:19 38° E 06:37:22 10° SSE
NOSS 0 Rocket 4.5 06:29:43 20° W 06:33:27 38° NW 06:39:12 10° NNE
SL-4 R/B 2.4 06:31:05 18° WSW 06:33:43 56° SSE 06:37:48 10° E
Cosmos 1825 Rocket 3.8 06:29:27 10° NNW 06:33:46 49° W 06:38:05 10° SSW
SMAP 3.8 06:30:52 10° NNE 06:35:28 56° E 06:40:03 10° S
Cosmos 2263 4.2 06:30:32 10° NNW 06:36:13 84° WSW 06:41:55 10° SSE
Cosmos 1943 Rocket 2.6 06:32:42 16° NW 06:36:55 42° WSW 06:42:13 10° S
H-2A R/B 3.3 06:35:13 10° NNE 06:39:42 60° ESE 06:44:09 10° S
USA 306 3.1 06:38:44 14° WSW 06:42:21 70° SSE 06:46:35 10° ENE
CZ-2C R/B 2.6 06:38:43 10° S 06:43:59 72° WSW 06:49:26 10° NNW
Cosmos 540 Rocket 4.4 06:41:31 18° W 06:44:02 27° NW 06:48:23 10° N
Envisat 2.9 06:39:07 10° NNE 06:44:12 71° WNW 06:49:15 10° SSW
CZ-4B R/B 3.3 06:41:47 10° N 06:45:04 32° WNW 06:48:24 10° SW
Cosmos 1125 Rocket 4.4 06:42:10 15° NW 06:45:39 29° W 06:50:11 10° SSW
Cosmos 2369 Rocket 2.3 06:42:19 10° NW 06:47:44 55° WSW 06:53:10 10° S
Cosmos 1461 4.4 06:47:46 17° WNW 06:50:17 26° NNW 06:54:16 10° NE
COSMO-SKYMED 1 4.2 06:47:49 10° SW 06:49:47 15° W 06:49:47 15° W
SWARM A 4.2 06:50:08 10° N 06:53:30 90° E 06:56:49 10° S
Cosmos 1634 Rocket 4.1 06:48:13 10° SSW 06:54:12 51° WNW 07:00:16 10° N
NOSS 3-2 (A) 3.5 06:49:54 10° WSW 06:55:49 74° NW 07:02:44 10° NE
Meteor 2-10 Rocket 4.1 06:50:04 10° S 06:55:51 71° E 07:01:33 10° NNE
Cosmos 2228 3.2 06:52:11 10° SSW 06:56:17 47° WNW 07:00:26 10° N
ERBS 3.9 06:54:07 10° SSW 06:57:07 34° SE 07:00:07 10° ENE
Cosmos 1953 Rocket 3.9 06:55:02 10° NNW 06:59:06 40° W 07:03:10 10° SSW
ERS-2 4.1 06:58:38 10° WSW 06:59:45 12° W 06:59:45 12° W
H-2A R/B 3.5 06:57:48 10° N 07:01:01 28° WNW 07:04:15 10° SW
Cosmos 2266 Rocket 3.9 06:54:57 10° NNW 07:01:02 83° W 07:07:04 10° S
CZ-4B R/B 3.6 06:55:57 10° NNE 07:01:38 71° ESE 07:07:12 10° S
DMSP B5D2-2 4.1 06:56:44 10° S 07:01:59 71° WSW 07:07:18 10° NNW
SL-16 R/B 2.4 06:57:29 10° SW 07:03:01 52° NW 07:08:36 10° NNE
CORIOLIS 4.4 06:59:32 10° NNE 07:04:56 77° ESE 07:10:17 10° SSW
Cosmos 1809 Rocket 4.5 06:59:20 10° NNW 07:05:31 69° W 07:11:39 10° S
FALCON 9 DEB 4.2 07:03:48 10° SW 07:06:46 39° SSE 07:09:43 10° E
Cosmos 1943 3.9 07:01:52 10° SSW 07:07:27 59° ESE 07:13:04 10° NE
Cosmos 1953 4.3 07:08:06 11° NW 07:08:06 11° NW 07:08:33 10° NW
CZ-4 R/B 4.1 07:04:52 10° NE 07:08:00 23° E 07:11:05 10° SSE
Cosmos 2219 Rocket 3.8 07:05:20 11° WNW 07:08:27 17° NNW 07:11:59 10° NNE
Cosmos 1825 2.2 07:04:43 10° N 07:08:33 89° ESE 07:12:19 10° S
Cosmos 2285 Rocket 4.2 07:02:14 10° NNW 07:08:35 78° ENE 07:14:54 10° SSE
NOSS 3-2 (C) 3.5 07:03:33 10° SW 07:09:25 86° NW 07:16:18 10° NE
DNEPR-1 R/B 4.3 07:06:07 10° NW 07:10:56 49° NE 07:15:08 10° ESE
Cosmos 2237 Rocket 3.2 07:06:57 10° W 07:11:42 26° NW 07:16:29 10° NNE
Cosmos 1606 Rocket 4.0 07:09:04 10° SW 07:13:07 38° WNW 07:17:12 10° N
Cosmos 1656 Rocket 3.7 07:08:21 10° NW 07:13:43 57° WSW 07:18:59 10° SSE
Cosmos 2058 2.8 07:10:01 10° NNW 07:14:08 69° W 07:18:12 10° S
Cosmos 1455 2.3 07:10:35 10° S 07:14:19 79° E 07:18:06 10° NNE
FALCON 9 DEB 3.9 07:12:10 10° SW 07:15:09 45° SSE 07:18:08 10° E
NOAA 6 4.1 07:10:18 10° N 07:15:24 57° WNW 07:20:29 10° SW
Aureole 3 4.3 07:09:32 10° S 07:15:28 78° E 07:20:08 10° NNE
CZ-2C R/B 4.5 07:10:39 10° NNE 07:16:19 49° E 07:21:49 10° S
CENTAUR R/B 2.7 07:10:17 10° SW 07:16:31 79° NW 07:24:02 10° NE
AQUARIUS 4.1 07:13:13 10° NNE 07:17:43 72° WNW 07:22:12 10° SSW
Lacrosse 4 Rocket 2.5 07:17:59 10° W 07:21:45 28° NW 07:25:36 10° NNE
Cosmos 1300 3.9 07:19:57 10° WSW 07:22:59 22° WNW 07:26:01 10° NNW
Cosmos 1315 Rocket 3.8 07:25:07 10° WSW 07:28:22 24° WNW 07:31:38 10° N
Cosmos 1812 Rocket 4.4 07:26:32 10° S 07:30:55 59° E 07:35:18 10° NNE
Meteor 2-16 Rocket 4.5 07:25:05 10° NNW 07:31:13 77° W 07:37:18 10° S
Cosmos 2333 Rocket 4.0 07:29:44 10° NW 07:32:54 15° NNW 07:36:05 10° NNE
PAYLOAD B 4.4 07:30:04 10° N 07:35:30 54° WNW 07:40:56 10° SW
NOAA 11 4.2 07:30:05 10° NNE 07:35:31 68° WNW 07:40:55 10° SSW
Cosmos 1655 Rocket 4.4 07:30:42 10° NNW 07:36:32 43° W 07:42:24 10° SSW
Aureole 3 Rocket 4.1 07:31:55 10° S 07:36:46 51° E 07:40:24 10° NNE
